Time,TemperatureF,DewpointF,PressureIn,WindDirection,WindDirectionDegrees,WindSpeedMPH,WindSpeedGustMPH,Humidity,HourlyPrecipIn,Conditions,Clouds,dailyrainin,SoftwareType,DateUTC
2013-04-29 00:00:00,53.6,41.3,29.26,East,79,6.7,6.7,63,0.00,,BKN,0.00,VWS V13.01,2013-04-29 04:00:00,
2013-04-29 00:01:00,53.6,41.3,29.26,East,79,6.7,6.7,63,0.00,,BKN,0.00,VWS V13.01,2013-04-29 04:01:00,
2013-04-29 00:06:00,53.6,40.9,29.26,East,79,6.7,6.7,62,0.00,,BKN,0.00,VWS V13.01,2013-04-29 04:06:00,
2013-04-29 00:11:00,53.6,39.6,29.26,East,79,6.7,6.7,59,0.00,,BKN,0.00,VWS V13.01,2013-04-29 04:11:00,
2013-04-29 00:16:00,53.6,38.8,29.26,East,79,6.7,6.7,57,0.00,,BKN,0.00,VWS V13.01,2013-04-29 04:16:00,
2013-04-29 00:21:00,53.6,37.4,29.26,East,79,6.7,6.7,54,0.00,,BKN,0.00,VWS V13.01,2013-04-29 04:21:00,
2013-04-29 00:26:00,55.0,38.7,29.26,East,79,6.7,6.7,54,0.00,,BKN,0.00,VWS V13.01,2013-04-29 04:26:00,
2013-04-29 00:31:00,55.0,38.7,29.26,East,79,6.7,6.7,54,0.00,,BKN,0.00,VWS V13.01,2013-04-29 04:31:00,
2013-04-29 00:36:00,55.0,38.7,29.26,East,79,6.7,6.7,54,0.00,,BKN,0.00,VWS V13.01,2013-04-29 04:36:00,
2013-04-29 00:41:00,55.0,38.7,29.26,East,79,6.7,6.7,54,0.00,,BKN,0.00,VWS V13.01,2013-04-29 04:41:00,
2013-04-29 00:46:00,55.0,38.7,29.26,East,79,6.7,6.7,54,0.00,,BKN,0.00,VWS V13.01,2013-04-29 04:46:00,
2013-04-29 00:51:00,54.9,38.5,29.26,East,79,6.7,6.7,54,0.00,,BKN,0.00,VWS V13.01,2013-04-29 04:51:00,
2013-04-29 00:55:00,54.9,38.5,29.26,East,79,6.7,6.7,54,0.00,,BKN,0.00,VWS V13.01,2013-04-29 04:55:00,
2013-04-29 01:00:00,54.7,38.4,29.26,East,79,6.7,6.7,54,0.00,,BKN,0.00,VWS V13.01,2013-04-29 05:00:00,
2013-04-29 01:05:00,54.7,39.8,29.26,East,79,6.7,6.7,57,0.00,,BKN,0.00,VWS V13.01,2013-04-29 05:05:00,
2013-04-29 01:10:00,54.5,39.6,29.26,East,79,6.7,6.7,57,0.00,,BKN,0.00,VWS V13.01,2013-04-29 05:10:00,
2013-04-29 01:15:00,54.5,39.6,29.26,East,79,6.7,6.7,57,0.00,,BKN,0.00,VWS V13.01,2013-04-29 05:15:00,
2013-04-29 01:20:00,54.5,40.0,29.26,East,79,6.7,6.7,58,0.00,,BKN,0.00,VWS V13.01,2013-04-29 05:20:00,
2013-04-29 01:25:00,54.3,39.9,29.23,East,79,6.7,6.7,58,0.00,,BKN,0.00,VWS V13.01,2013-04-29 05:25:00,
2013-04-29 01:30:00,54.3,39.9,29.23,East,79,6.7,6.7,58,0.00,,BKN,0.00,VWS V13.01,2013-04-29 05:30:00,
2013-04-29 01:35:00,54.3,39.9,29.23,East,79,6.7,6.7,58,0.00,,BKN,0.00,VWS V13.01,2013-04-29 05:35:00,
2013-04-29 01:40:00,54.1,39.7,29.23,East,79,6.7,6.7,58,0.00,,BKN,0.00,VWS V13.01,2013-04-29 05:40:00,
2013-04-29 01:45:00,54.0,41.2,29.23,East,79,6.7,6.7,62,0.00,,BKN,0.00,VWS V13.01,2013-04-29 05:45:00,
2013-04-29 01:50:00,54.0,41.7,29.23,East,79,6.7,6.7,63,0.00,,BKN,0.00,VWS V13.01,2013-04-29 05:50:00,
2013-04-29 01:55:00,54.0,41.7,29.23,East,79,6.7,6.7,63,0.00,,BKN,0.00,VWS V13.01,2013-04-29 05:55:00,
2013-04-29 02:00:00,53.8,41.9,29.23,East,79,6.7,6.7,64,0.00,,BKN,0.00,VWS V13.01,2013-04-29 06:00:00,
2013-04-29 02:05:00,53.8,42.3,29.23,East,79,6.7,6.7,65,0.00,,BKN,0.00,VWS V13.01,2013-04-29 06:05:00,
2013-04-29 02:10:00,53.6,42.1,29.23,East,79,6.7,6.7,65,0.00,,BKN,0.00,VWS V13.01,2013-04-29 06:10:00,
2013-04-29 02:15:00,53.6,42.5,29.23,East,79,6.7,6.7,66,0.00,,BKN,0.00,VWS V13.01,2013-04-29 06:15:00,
2013-04-29 02:20:00,53.6,42.5,29.23,East,79,6.7,6.7,66,0.00,,BKN,0.00,VWS V13.01,2013-04-29 06:20:00,
2013-04-29 02:25:00,53.6,42.5,29.23,East,79,6.7,6.7,66,0.00,,BKN,0.00,VWS V13.01,2013-04-29 06:25:00,
2013-04-29 02:30:00,53.6,42.5,29.23,East,79,6.7,6.7,66,0.00,,BKN,0.00,VWS V13.01,2013-04-29 06:30:00,
2013-04-29 02:35:00,53.4,42.8,29.23,East,79,6.7,6.7,67,0.00,,BKN,0.00,VWS V13.01,2013-04-29 06:35:00,
2013-04-29 02:40:00,53.4,42.8,29.23,East,79,6.7,6.7,67,0.00,,BKN,0.00,VWS V13.01,2013-04-29 06:40:00,
2013-04-29 02:45:00,53.2,42.6,29.23,East,79,6.7,6.7,67,0.00,,BKN,0.00,VWS V13.01,2013-04-29 06:45:00,
2013-04-29 02:50:00,53.2,43.0,29.23,East,79,6.7,6.7,68,0.00,,BKN,0.00,VWS V13.01,2013-04-29 06:50:00,
2013-04-29 02:55:00,53.2,43.0,29.21,East,79,6.7,6.7,68,0.00,,BKN,0.00,VWS V13.01,2013-04-29 06:55:00,
2013-04-29 03:00:00,53.2,43.0,29.21,East,79,6.7,6.7,68,0.00,,BKN,0.00,VWS V13.01,2013-04-29 07:00:00,
2013-04-29 03:05:00,53.1,43.2,29.21,East,79,6.7,6.7,69,0.00,,BKN,0.00,VWS V13.01,2013-04-29 07:05:00,
2013-04-29 03:10:00,53.1,43.2,29.21,East,79,6.7,6.7,69,0.00,,BKN,0.00,VWS V13.01,2013-04-29 07:10:00,
2013-04-29 03:15:00,52.9,43.0,29.21,East,79,6.7,6.7,69,0.00,,BKN,0.00,VWS V13.01,2013-04-29 07:15:00,
2013-04-29 03:20:00,52.7,43.2,29.21,East,79,6.7,6.7,70,0.00,,BKN,0.00,VWS V13.01,2013-04-29 07:20:00,
2013-04-29 03:25:00,52.5,43.0,29.21,East,79,6.7,6.7,70,0.00,,BKN,0.00,VWS V13.01,2013-04-29 07:25:00,
2013-04-29 03:30:00,52.3,42.9,29.21,East,79,6.7,6.7,70,0.00,,BKN,0.00,VWS V13.01,2013-04-29 07:30:00,
2013-04-29 03:35:00,52.3,42.9,29.21,East,79,6.7,6.7,70,0.00,,BKN,0.00,VWS V13.01,2013-04-29 07:35:00,
2013-04-29 03:40:00,52.2,42.7,29.21,East,79,6.7,6.7,70,0.00,,BKN,0.00,VWS V13.01,2013-04-29 07:40:00,
2013-04-29 03:45:00,52.0,42.5,29.21,East,79,6.7,6.7,70,0.00,,BKN,0.00,VWS V13.01,2013-04-29 07:45:00,
2013-04-29 03:50:00,51.8,42.7,29.21,East,79,6.7,6.7,71,0.00,,BKN,0.00,VWS V13.01,2013-04-29 07:50:00,
2013-04-29 03:55:00,51.8,43.1,29.21,East,79,6.7,6.7,72,0.00,,BKN,0.00,VWS V13.01,2013-04-29 07:55:00,
2013-04-29 04:00:00,51.6,43.3,29.21,East,79,6.7,6.7,73,0.00,,BKN,0.00,VWS V13.01,2013-04-29 08:00:00,
2013-04-29 04:05:00,51.6,43.6,29.21,East,79,6.7,6.7,74,0.00,,BKN,0.00,VWS V13.01,2013-04-29 08:05:00,
2013-04-29 04:10:00,51.6,44.3,29.21,East,79,6.7,6.7,76,0.00,,BKN,0.00,VWS V13.01,2013-04-29 08:10:00,
2013-04-29 04:15:00,51.8,45.8,29.21,East,79,6.7,6.7,80,0.00,,BKN,0.00,VWS V13.01,2013-04-29 08:15:00,
2013-04-29 04:20:00,51.6,45.7,29.21,East,79,6.7,6.7,80,0.00,,BKN,0.00,VWS V13.01,2013-04-29 08:20:00,
2013-04-29 04:25:00,51.6,46.0,29.21,East,79,6.7,6.7,81,0.00,,BKN,0.00,VWS V13.01,2013-04-29 08:25:00,
2013-04-29 04:30:00,51.6,46.3,29.21,East,79,6.7,6.7,82,0.00,,BKN,0.00,VWS V13.01,2013-04-29 08:30:00,
2013-04-29 04:35:00,51.6,46.3,29.21,East,79,6.7,6.7,82,0.00,,BKN,0.00,VWS V13.01,2013-04-29 08:35:00,
2013-04-29 04:40:00,51.6,46.3,29.21,East,79,6.7,6.7,82,0.00,,BKN,0.00,VWS V13.01,2013-04-29 08:40:00,
2013-04-29 04:45:00,51.6,46.3,29.21,East,79,6.7,6.7,82,0.00,,BKN,0.00,VWS V13.01,2013-04-29 08:45:00,
2013-04-29 04:50:00,51.6,46.3,29.21,East,79,6.7,6.7,82,0.00,,BKN,0.00,VWS V13.01,2013-04-29 08:50:00,
2013-04-29 04:55:00,51.6,46.6,29.21,East,79,6.7,6.7,83,0.00,,BKN,0.00,VWS V13.01,2013-04-29 08:55:00,
2013-04-29 05:00:00,51.6,46.6,29.21,East,79,6.7,6.7,83,0.00,,BKN,0.00,VWS V13.01,2013-04-29 09:00:00,
2013-04-29 05:05:00,51.6,46.6,29.21,East,79,6.7,6.7,83,0.00,,BKN,0.00,VWS V13.01,2013-04-29 09:05:00,
2013-04-29 05:10:00,51.6,47.0,29.21,East,79,6.7,6.7,84,0.00,,BKN,0.00,VWS V13.01,2013-04-29 09:10:00,
2013-04-29 05:15:00,51.6,47.0,29.21,East,79,6.7,6.7,84,0.00,,BKN,0.00,VWS V13.01,2013-04-29 09:15:00,
2013-04-29 05:20:00,51.6,47.3,29.21,East,79,6.7,6.7,85,0.00,,BKN,0.00,VWS V13.01,2013-04-29 09:20:00,
2013-04-29 05:25:00,51.6,47.3,29.21,East,79,6.7,6.7,85,0.00,,BKN,0.00,VWS V13.01,2013-04-29 09:25:00,
2013-04-29 05:30:00,51.6,47.3,29.21,East,79,6.7,6.7,85,0.00,,BKN,0.00,VWS V13.01,2013-04-29 09:30:00,
2013-04-29 05:35:00,51.6,47.6,29.21,East,79,6.7,6.7,86,0.00,,BKN,0.00,VWS V13.01,2013-04-29 09:35:00,
2013-04-29 05:40:00,51.6,47.6,29.21,East,79,6.7,6.7,86,0.00,,BKN,0.00,VWS V13.01,2013-04-29 09:40:00,
2013-04-29 05:45:00,51.6,47.6,29.21,East,79,6.7,6.7,86,0.00,,BKN,0.00,VWS V13.01,2013-04-29 09:45:00,
2013-04-29 05:50:00,51.6,47.6,29.21,East,79,6.7,6.7,86,0.00,,BKN,0.00,VWS V13.01,2013-04-29 09:50:00,
2013-04-29 05:55:00,51.6,47.6,29.21,East,79,6.7,6.7,86,0.00,,BKN,0.00,VWS V13.01,2013-04-29 09:55:00,
2013-04-29 06:00:00,51.6,47.6,29.21,East,79,6.7,6.7,86,0.00,,BKN,0.00,VWS V13.01,2013-04-29 10:00:00,
2013-04-29 06:05:00,51.6,47.6,29.21,East,79,6.7,6.7,86,0.00,,BKN,0.00,VWS V13.01,2013-04-29 10:05:00,
2013-04-29 06:10:00,51.6,47.9,29.21,East,79,6.7,6.7,87,0.00,,BKN,0.00,VWS V13.01,2013-04-29 10:10:00,
2013-04-29 06:15:00,51.6,47.9,29.21,East,79,6.7,6.7,87,0.00,,BKN,0.00,VWS V13.01,2013-04-29 10:15:00,
2013-04-29 06:20:00,51.6,48.2,29.21,East,79,6.7,6.7,88,0.00,,BKN,0.00,VWS V13.01,2013-04-29 10:20:00,
2013-04-29 06:25:00,51.6,48.2,29.21,East,79,6.7,6.7,88,0.00,,BKN,0.00,VWS V13.01,2013-04-29 10:25:00,
2013-04-29 06:30:00,51.6,48.2,29.21,East,79,6.7,6.7,88,0.00,,BKN,0.00,VWS V13.01,2013-04-29 10:30:00,
2013-04-29 06:35:00,51.6,48.2,29.21,East,79,6.7,6.7,88,0.00,,BKN,0.00,VWS V13.01,2013-04-29 10:35:00,
2013-04-29 06:40:00,51.6,48.2,29.21,East,79,6.7,6.7,88,0.00,,BKN,0.00,VWS V13.01,2013-04-29 10:40:00,
2013-04-29 06:45:00,51.6,48.2,29.21,East,79,6.7,6.7,88,0.00,,BKN,0.00,VWS V13.01,2013-04-29 10:45:00,
2013-04-29 06:50:00,51.8,48.4,29.21,East,79,6.7,6.7,88,0.00,,BKN,0.00,VWS V13.01,2013-04-29 10:50:00,
2013-04-29 06:55:00,51.8,48.4,29.21,East,79,6.7,6.7,88,0.00,,BKN,0.00,VWS V13.01,2013-04-29 10:55:00,
2013-04-29 07:00:00,51.8,48.4,29.21,East,79,6.7,6.7,88,0.00,,BKN,0.00,VWS V13.01,2013-04-29 11:00:00,
2013-04-29 07:05:00,51.8,48.4,29.21,East,79,6.7,6.7,88,0.00,,BKN,0.00,VWS V13.01,2013-04-29 11:05:00,
2013-04-29 07:10:00,51.8,48.4,29.21,East,79,6.7,6.7,88,0.00,,BKN,0.00,VWS V13.01,2013-04-29 11:10:00,
2013-04-29 07:15:00,51.8,48.4,29.21,East,79,6.7,6.7,88,0.00,,BKN,0.00,VWS V13.01,2013-04-29 11:15:00,
2013-04-29 07:20:00,51.8,48.4,29.21,East,79,6.7,6.7,88,0.00,,BKN,0.00,VWS V13.01,2013-04-29 11:20:00,
2013-04-29 07:25:00,51.8,48.7,29.21,East,79,6.7,6.7,89,0.00,,BKN,0.00,VWS V13.01,2013-04-29 11:25:00,
2013-04-29 07:30:00,52.0,48.8,29.21,East,79,6.7,6.7,89,0.00,,BKN,0.00,VWS V13.01,2013-04-29 11:30:00,
2013-04-29 07:35:00,52.0,48.8,29.21,East,79,6.7,6.7,89,0.00,,BKN,0.00,VWS V13.01,2013-04-29 11:35:00,
2013-04-29 07:40:00,52.0,48.8,29.21,East,79,6.7,6.7,89,0.00,,BKN,0.00,VWS V13.01,2013-04-29 11:40:00,
2013-04-29 07:45:00,52.0,48.8,29.21,East,79,6.7,6.7,89,0.00,,BKN,0.00,VWS V13.01,2013-04-29 11:45:00,
2013-04-29 07:50:00,52.2,49.0,29.21,East,79,6.7,6.7,89,0.00,,BKN,0.00,VWS V13.01,2013-04-29 11:50:00,
2013-04-29 07:55:00,52.2,49.3,29.21,East,79,6.7,6.7,90,0.00,,BKN,0.00,VWS V13.01,2013-04-29 11:55:00,
2013-04-29 07:59:00,52.2,49.3,29.21,East,79,6.7,6.7,90,0.00,,BKN,0.00,VWS V13.01,2013-04-29 11:59:00,
2013-04-29 08:04:00,52.2,49.3,29.21,East,79,6.7,6.7,90,0.00,,BKN,0.00,VWS V13.01,2013-04-29 12:04:00,
2013-04-29 08:09:00,52.2,49.3,29.23,East,79,6.7,6.7,90,0.00,,BKN,0.00,VWS V13.01,2013-04-29 12:09:00,
2013-04-29 08:14:00,52.2,49.3,29.23,East,79,6.7,6.7,90,0.00,,BKN,0.00,VWS V13.01,2013-04-29 12:14:00,
2013-04-29 08:19:00,52.2,49.3,29.23,East,79,6.7,6.7,90,0.00,,BKN,0.00,VWS V13.01,2013-04-29 12:19:00,
2013-04-29 08:25:00,52.3,49.5,29.23,ESE,108,4.0,4.0,90,0.00,,BKN,0.00,VWS V13.01,2013-04-29 12:25:00,
2013-04-29 08:30:00,52.5,49.7,29.23,ESE,116,0.0,0.0,90,0.00,,BKN,0.00,VWS V13.01,2013-04-29 12:30:00,
2013-04-29 08:35:00,52.7,49.8,29.23,ENE,61,3.1,3.1,90,0.00,,BKN,0.00,VWS V13.01,2013-04-29 12:35:00,
2013-04-29 08:40:00,52.7,49.8,29.23,NE,50,2.7,2.7,90,0.00,,BKN,0.00,VWS V13.01,2013-04-29 12:40:00,
2013-04-29 08:45:00,52.7,49.8,29.23,ENE,69,5.4,5.4,90,0.00,,BKN,0.00,VWS V13.01,2013-04-29 12:45:00,
2013-04-29 08:50:00,52.7,49.8,29.23,NE,56,2.7,4.9,90,0.00,,BKN,0.00,VWS V13.01,2013-04-29 12:50:00,
2013-04-29 08:55:00,52.7,49.8,29.23,NE,53,4.5,5.8,90,0.00,,BKN,0.00,VWS V13.01,2013-04-29 12:55:00,
2013-04-29 09:00:00,52.9,50.0,29.23,ENE,61,3.6,5.4,90,0.00,,BKN,0.00,VWS V13.01,2013-04-29 13:00:00,
2013-04-29 09:05:00,52.9,50.0,29.23,NE,35,4.5,4.5,90,0.00,,BKN,0.00,VWS V13.01,2013-04-29 13:05:00,
2013-04-29 09:09:00,52.9,50.0,29.23,ESE,122,3.6,4.9,90,0.00,,BKN,0.00,VWS V13.01,2013-04-29 13:09:00,
2013-04-29 09:14:00,53.1,50.2,29.23,ESE,103,4.9,4.9,90,0.00,,BKN,0.00,VWS V13.01,2013-04-29 13:14:00,
2013-04-29 09:19:00,53.1,50.2,29.23,SE,124,0.0,3.1,90,0.00,,BKN,0.00,VWS V13.01,2013-04-29 13:19:00,
2013-04-29 09:24:00,53.1,50.2,29.23,ESE,107,3.1,3.1,90,0.00,,BKN,0.00,VWS V13.01,2013-04-29 13:24:00,
2013-04-29 09:29:00,53.1,50.2,29.23,ENE,64,2.7,4.0,90,0.00,,BKN,0.00,VWS V13.01,2013-04-29 13:29:00,
2013-04-29 09:34:00,53.1,50.2,29.23,ESE,117,6.7,6.7,90,0.00,,BKN,0.00,VWS V13.01,2013-04-29 13:34:00,
2013-04-29 09:39:00,53.1,50.2,29.21,ESE,118,2.7,4.5,90,0.00,,BKN,0.00,VWS V13.01,2013-04-29 13:39:00,
2013-04-29 09:44:00,53.1,50.2,29.21,ENE,73,0.0,0.0,90,0.00,,BKN,0.00,VWS V13.01,2013-04-29 13:44:00,
2013-04-29 09:49:00,53.1,50.2,29.21,East,98,3.6,3.6,90,0.00,,BKN,0.00,VWS V13.01,2013-04-29 13:49:00,
2013-04-29 09:54:00,53.1,50.2,29.21,ESE,120,2.7,3.6,90,0.00,,BKN,0.00,VWS V13.01,2013-04-29 13:54:00,
2013-04-29 09:59:00,53.2,50.4,29.21,ESE,120,2.7,4.0,90,0.00,,BKN,0.00,VWS V13.01,2013-04-29 13:59:00,
2013-04-29 10:04:00,53.4,50.6,29.21,ENE,72,4.0,4.5,90,0.00,,BKN,0.00,VWS V13.01,2013-04-29 14:04:00,
2013-04-29 10:09:00,53.4,50.6,29.21,NE,56,3.6,4.0,90,0.00,,BKN,0.00,VWS V13.01,2013-04-29 14:09:00,
2013-04-29 10:14:00,53.4,50.6,29.21,ESE,114,4.5,5.4,90,0.00,,BKN,0.00,VWS V13.01,2013-04-29 14:14:00,
2013-04-29 10:19:00,53.4,50.6,29.21,East,92,3.6,3.6,90,0.00,,BKN,0.00,VWS V13.01,2013-04-29 14:19:00,
2013-04-29 10:24:00,53.4,50.6,29.21,East,101,2.7,3.6,90,0.00,,BKN,0.00,VWS V13.01,2013-04-29 14:24:00,
2013-04-29 10:29:00,53.6,50.7,29.21,East,99,4.5,4.5,90,0.00,,BKN,0.00,VWS V13.01,2013-04-29 14:29:00,
2013-04-29 10:34:00,53.8,50.9,29.21,SE,127,3.6,3.6,90,0.00,,BKN,0.00,VWS V13.01,2013-04-29 14:34:00,
2013-04-29 10:39:00,53.8,50.9,29.21,SE,126,0.0,0.0,90,0.00,,BKN,0.00,VWS V13.01,2013-04-29 14:39:00,
2013-04-29 10:44:00,54.0,51.1,29.21,SE,126,2.7,3.1,90,0.00,,BKN,0.00,VWS V13.01,2013-04-29 14:44:00,
2013-04-29 10:49:00,54.0,51.1,29.21,ESE,107,4.0,4.0,90,0.00,,BKN,0.00,VWS V13.01,2013-04-29 14:49:00,
2013-04-29 10:54:00,54.0,51.1,29.21,East,96,3.1,3.1,90,0.00,,BKN,0.00,VWS V13.01,2013-04-29 14:54:00,
2013-04-29 10:59:00,54.3,51.8,29.21,East,96,4.0,4.0,91,0.00,,BKN,0.00,VWS V13.01,2013-04-29 14:59:00,
2013-04-29 11:04:00,54.5,51.9,29.21,East,88,3.1,4.0,91,0.00,,BKN,0.00,VWS V13.01,2013-04-29 15:04:00,
2013-04-29 11:09:00,54.7,51.8,29.21,East,88,0.0,0.0,90,0.00,,BKN,0.00,VWS V13.01,2013-04-29 15:09:00,
2013-04-29 11:14:00,54.7,51.8,29.21,East,88,0.0,0.0,90,0.00,,BKN,0.00,VWS V13.01,2013-04-29 15:14:00,
2013-04-29 11:19:00,54.5,51.6,29.21,East,81,3.1,4.5,90,0.00,,BKN,0.00,VWS V13.01,2013-04-29 15:19:00,
2013-04-29 11:24:00,54.5,51.6,29.21,ENE,58,4.5,4.5,90,0.00,,BKN,0.00,VWS V13.01,2013-04-29 15:24:00,
2013-04-29 11:29:00,54.7,51.8,29.21,East,84,4.0,5.4,90,0.00,,BKN,0.00,VWS V13.01,2013-04-29 15:29:00,
2013-04-29 11:34:00,55.2,52.6,29.21,ESE,116,5.4,5.8,91,0.00,,BKN,0.00,VWS V13.01,2013-04-29 15:34:00,
2013-04-29 11:39:00,55.4,52.8,29.21,East,80,0.0,0.0,91,0.00,,BKN,0.00,VWS V13.01,2013-04-29 15:39:00,
2013-04-29 11:44:00,55.4,52.8,29.21,ENE,57,4.9,6.3,91,0.00,,BKN,0.00,VWS V13.01,2013-04-29 15:44:00,
2013-04-29 11:49:00,55.4,52.8,29.21,NE,43,3.1,4.0,91,0.00,,BKN,0.00,VWS V13.01,2013-04-29 15:49:00,
2013-04-29 11:54:00,55.8,53.2,29.21,ENE,59,4.9,4.9,91,0.00,,BKN,0.00,VWS V13.01,2013-04-29 15:54:00,
2013-04-29 11:59:00,55.9,53.4,29.21,ENE,77,4.5,4.5,91,0.00,,BKN,0.00,VWS V13.01,2013-04-29 15:59:00,
2013-04-29 12:04:00,55.6,52.7,29.21,ENE,57,3.6,4.9,90,0.00,,BKN,0.00,VWS V13.01,2013-04-29 16:04:00,
2013-04-29 12:09:00,56.3,53.1,29.21,NE,55,5.4,5.4,89,0.00,,BKN,0.00,VWS V13.01,2013-04-29 16:09:00,
2013-04-29 12:14:00,56.3,53.1,29.21,ESE,106,4.5,5.4,89,0.00,,BKN,0.00,VWS V13.01,2013-04-29 16:14:00,
2013-04-29 12:19:00,56.7,52.8,29.21,ESE,109,2.7,3.1,87,0.00,,BKN,0.00,VWS V13.01,2013-04-29 16:19:00,
2013-04-29 12:24:00,56.8,53.0,29.21,East,92,4.0,5.8,87,0.00,,BKN,0.00,VWS V13.01,2013-04-29 16:24:00,
2013-04-29 12:29:00,56.7,52.2,29.21,ESE,112,3.1,3.1,85,0.00,,BKN,0.00,VWS V13.01,2013-04-29 16:29:00,
2013-04-29 12:34:00,57.0,52.6,29.21,East,97,2.7,2.7,85,0.00,,BKN,0.00,VWS V13.01,2013-04-29 16:34:00,
2013-04-29 12:39:00,57.2,52.7,29.21,NE,53,0.0,0.0,85,0.00,,BKN,0.00,VWS V13.01,2013-04-29 16:39:00,
2013-04-29 12:44:00,57.6,53.1,29.21,NNE,31,0.0,2.7,85,0.00,,BKN,0.00,VWS V13.01,2013-04-29 16:44:00,
2013-04-29 12:49:00,57.7,53.3,29.21,East,97,3.6,4.0,85,0.00,,BKN,0.00,VWS V13.01,2013-04-29 16:49:00,
2013-04-29 12:54:00,57.9,53.1,29.21,East,97,0.0,4.0,84,0.00,,BKN,0.00,VWS V13.01,2013-04-29 16:54:00,
2013-04-29 12:59:00,57.9,52.8,29.21,NE,35,3.1,5.4,83,0.00,,BKN,0.00,VWS V13.01,2013-04-29 16:59:00,
2013-04-29 13:04:00,58.1,53.0,29.21,NE,44,2.7,3.1,83,0.00,,BKN,0.00,VWS V13.01,2013-04-29 17:04:00,
2013-04-29 13:09:00,58.3,52.8,29.21,NE,55,0.0,0.0,82,0.00,,BKN,0.00,VWS V13.01,2013-04-29 17:09:00,
2013-04-29 13:14:00,58.6,52.2,29.21,ESE,118,3.1,6.3,79,0.00,,BKN,0.00,VWS V13.01,2013-04-29 17:14:00,
2013-04-29 13:19:00,59.2,52.3,29.21,NE,45,3.1,3.1,78,0.00,,BKN,0.00,VWS V13.01,2013-04-29 17:19:00,
2013-04-29 13:24:00,59.0,51.8,29.21,East,89,3.6,5.4,77,0.00,,BKN,0.00,VWS V13.01,2013-04-29 17:24:00,
2013-04-29 13:29:00,58.8,51.3,29.21,NE,51,3.6,4.5,76,0.00,,BKN,0.00,VWS V13.01,2013-04-29 17:29:00,
2013-04-29 13:34:00,59.0,50.7,29.21,East,86,3.6,4.5,74,0.00,,BKN,0.00,VWS V13.01,2013-04-29 17:34:00,
2013-04-29 13:39:00,59.0,50.4,29.18,East,98,3.6,3.6,73,0.00,,BKN,0.00,VWS V13.01,2013-04-29 17:39:00,
2013-04-29 13:44:00,59.5,50.9,29.18,NE,43,4.0,4.0,73,0.00,,BKN,0.00,VWS V13.01,2013-04-29 17:44:00,
2013-04-29 13:49:00,59.5,50.9,29.18,ENE,62,4.9,5.8,73,0.00,,BKN,0.00,VWS V13.01,2013-04-29 17:49:00,
2013-04-29 13:54:00,59.5,50.1,29.18,NE,47,8.7,9.6,71,0.00,,BKN,0.00,VWS V13.01,2013-04-29 17:54:00,
2013-04-29 13:59:00,59.5,50.1,29.18,ENE,74,4.0,5.8,71,0.00,,BKN,0.00,VWS V13.01,2013-04-29 17:59:00,
2013-04-29 14:04:00,59.9,50.5,29.18,SSW,196,2.7,4.9,71,0.00,,BKN,0.00,VWS V13.01,2013-04-29 18:04:00,
2013-04-29 14:09:00,60.3,49.7,29.18,East,101,4.5,4.5,68,0.00,,BKN,0.00,VWS V13.01,2013-04-29 18:09:00,
2013-04-29 14:14:00,60.4,49.8,29.18,SSE,150,5.4,5.4,68,0.00,,BKN,0.00,VWS V13.01,2013-04-29 18:14:00,
2013-04-29 14:19:00,60.3,49.3,29.18,ENE,65,5.8,5.8,67,0.00,,BKN,0.00,VWS V13.01,2013-04-29 18:19:00,
2013-04-29 14:24:00,60.3,49.3,29.18,ESE,109,5.8,6.3,67,0.00,,BKN,0.00,VWS V13.01,2013-04-29 18:24:00,
2013-04-29 14:29:00,60.4,49.8,29.18,NE,56,4.0,4.9,68,0.00,,BKN,0.00,VWS V13.01,2013-04-29 18:29:00,
2013-04-29 14:34:00,60.4,49.8,29.18,ESE,115,4.0,5.8,68,0.00,,BKN,0.00,VWS V13.01,2013-04-29 18:34:00,
2013-04-29 14:39:00,60.4,49.8,29.18,ENE,62,3.1,4.0,68,0.00,,BKN,0.00,VWS V13.01,2013-04-29 18:39:00,
2013-04-29 14:44:00,60.3,49.3,29.18,NE,53,4.0,4.9,67,0.00,,BKN,0.00,VWS V13.01,2013-04-29 18:44:00,
2013-04-29 14:49:00,60.1,49.5,29.18,NE,38,4.5,4.5,68,0.00,,BKN,0.00,VWS V13.01,2013-04-29 18:49:00,
2013-04-29 14:54:00,60.3,49.7,29.18,ENE,61,3.1,3.1,68,0.00,,BKN,0.00,VWS V13.01,2013-04-29 18:54:00,
2013-04-29 14:59:00,60.6,50.4,29.18,NE,53,6.7,6.7,69,0.00,,BKN,0.00,VWS V13.01,2013-04-29 18:59:00,
2013-04-29 15:04:00,61.0,50.4,29.18,SSE,156,3.6,4.5,68,0.00,,BKN,0.00,VWS V13.01,2013-04-29 19:04:00,
2013-04-29 15:09:00,61.3,50.7,29.18,ENE,68,4.9,6.7,68,0.00,,BKN,0.00,VWS V13.01,2013-04-29 19:09:00,
2013-04-29 15:14:00,61.7,50.6,29.18,ESE,110,3.6,4.9,67,0.00,,BKN,0.00,VWS V13.01,2013-04-29 19:14:00,
2013-04-29 15:19:00,61.5,50.1,29.18,East,87,0.0,4.5,66,0.00,,BKN,0.00,VWS V13.01,2013-04-29 19:19:00,
2013-04-29 15:24:00,61.2,49.7,29.18,ENE,69,4.5,5.4,66,0.00,,BKN,0.00,VWS V13.01,2013-04-29 19:24:00,
2013-04-29 15:29:00,61.0,49.5,29.18,ENE,74,3.6,4.5,66,0.00,,BKN,0.00,VWS V13.01,2013-04-29 19:29:00,
2013-04-29 15:34:00,60.8,50.2,29.18,NE,36,4.9,4.9,68,0.00,,BKN,0.00,VWS V13.01,2013-04-29 19:34:00,
2013-04-29 15:39:00,60.8,50.2,29.18,ESE,113,3.6,3.6,68,0.00,,BKN,0.00,VWS V13.01,2013-04-29 19:39:00,
2013-04-29 15:44:00,60.8,50.2,29.18,East,86,4.5,4.5,68,0.00,,BKN,0.00,VWS V13.01,2013-04-29 19:44:00,
2013-04-29 15:49:00,60.8,50.2,29.18,East,90,3.1,3.1,68,0.00,,BKN,0.00,VWS V13.01,2013-04-29 19:49:00,
2013-04-29 15:54:00,61.0,50.8,29.18,ENE,57,7.8,7.8,69,0.00,,BKN,0.00,VWS V13.01,2013-04-29 19:54:00,
2013-04-29 15:59:00,61.2,50.5,29.18,ENE,63,3.6,5.4,68,0.00,,BKN,0.00,VWS V13.01,2013-04-29 19:59:00,
2013-04-29 16:03:00,61.2,50.5,29.18,NE,34,4.0,6.9,68,0.00,,BKN,0.00,VWS V13.01,2013-04-29 20:03:00,
2013-04-29 16:08:00,61.3,50.7,29.18,NNE,20,4.5,5.8,68,0.00,,BKN,0.00,VWS V13.01,2013-04-29 20:08:00,
2013-04-29 16:13:00,61.3,51.1,29.18,ENE,57,4.0,5.8,69,0.00,,BKN,0.00,VWS V13.01,2013-04-29 20:13:00,
2013-04-29 16:18:00,61.3,51.1,29.18,NE,55,6.3,9.2,69,0.00,,BKN,0.00,VWS V13.01,2013-04-29 20:18:00,
2013-04-29 16:23:00,61.2,50.5,29.18,ENE,59,4.0,6.7,68,0.00,,BKN,0.00,VWS V13.01,2013-04-29 20:23:00,
2013-04-29 16:28:00,61.2,50.5,29.18,SE,125,9.6,9.6,68,0.00,,BKN,0.00,VWS V13.01,2013-04-29 20:28:00,
2013-04-29 16:33:00,61.3,50.3,29.18,NE,38,5.8,6.3,67,0.00,,BKN,0.00,VWS V13.01,2013-04-29 20:33:00,
2013-04-29 16:38:00,61.7,50.6,29.15,ESE,121,4.9,6.7,67,0.00,,BKN,0.00,VWS V13.01,2013-04-29 20:38:00,
2013-04-29 16:43:00,61.9,50.0,29.15,NE,38,5.8,6.9,65,0.00,,BKN,0.00,VWS V13.01,2013-04-29 20:43:00,
2013-04-29 16:48:00,61.9,50.0,29.15,ENE,64,7.8,8.7,65,0.00,,BKN,0.00,VWS V13.01,2013-04-29 20:48:00,
2013-04-29 16:53:00,61.9,50.0,29.15,ENE,75,4.5,4.9,65,0.00,,BKN,0.00,VWS V13.01,2013-04-29 20:53:00,
2013-04-29 16:58:00,61.9,50.0,29.15,North,351,5.4,7.8,65,0.00,,BKN,0.00,VWS V13.01,2013-04-29 20:58:00,
2013-04-29 17:03:00,61.7,50.2,29.15,NE,53,4.9,6.9,66,0.00,,BKN,0.00,VWS V13.01,2013-04-29 21:03:00,
2013-04-29 17:08:00,61.3,49.9,29.15,ENE,58,4.5,6.9,66,0.00,,BKN,0.00,VWS V13.01,2013-04-29 21:08:00,
2013-04-29 17:13:00,61.0,50.0,29.15,NNE,33,4.5,5.4,67,0.00,,BKN,0.00,VWS V13.01,2013-04-29 21:13:00,
2013-04-29 17:18:00,60.8,50.2,29.15,NE,52,5.4,5.8,68,0.00,,BKN,0.00,VWS V13.01,2013-04-29 21:18:00,
2013-04-29 17:23:00,60.4,49.8,29.18,SE,124,4.0,4.5,68,0.00,,BKN,0.00,VWS V13.01,2013-04-29 21:23:00,
2013-04-29 17:28:00,60.1,49.9,29.18,NE,45,2.7,5.4,69,0.00,,BKN,0.00,VWS V13.01,2013-04-29 21:28:00,
2013-04-29 17:33:00,60.1,50.3,29.18,ENE,61,5.4,5.4,70,0.00,,BKN,0.00,VWS V13.01,2013-04-29 21:33:00,
2013-04-29 17:38:00,60.1,50.7,29.18,ENE,66,3.6,4.0,71,0.00,,BKN,0.00,VWS V13.01,2013-04-29 21:38:00,
2013-04-29 17:43:00,60.1,50.7,29.18,East,100,4.0,4.9,71,0.00,,BKN,0.00,VWS V13.01,2013-04-29 21:43:00,
2013-04-29 17:48:00,60.1,51.0,29.18,NE,41,5.8,6.3,72,0.00,,BKN,0.00,VWS V13.01,2013-04-29 21:48:00,
2013-04-29 17:53:00,60.3,50.8,29.18,NNE,26,4.5,4.5,71,0.00,,BKN,0.00,VWS V13.01,2013-04-29 21:53:00,
2013-04-29 17:58:00,60.1,50.7,29.18,ENE,64,4.0,5.4,71,0.00,,BKN,0.00,VWS V13.01,2013-04-29 21:58:00,
2013-04-29 18:03:00,59.9,50.5,29.18,ENE,62,3.1,4.5,71,0.00,,BKN,0.00,VWS V13.01,2013-04-29 22:03:00,
2013-04-29 18:08:00,59.7,50.7,29.18,NNE,22,4.9,6.9,72,0.00,,BKN,0.00,VWS V13.01,2013-04-29 22:08:00,
2013-04-29 18:13:00,59.5,50.5,29.18,East,92,3.1,6.3,72,0.00,,BKN,0.00,VWS V13.01,2013-04-29 22:13:00,
2013-04-29 18:18:00,59.4,50.7,29.18,ENE,70,4.5,6.3,73,0.00,,BKN,0.00,VWS V13.01,2013-04-29 22:18:00,
2013-04-29 18:23:00,59.4,50.7,29.18,ENE,57,3.6,6.3,73,0.00,,BKN,0.00,VWS V13.01,2013-04-29 22:23:00,
2013-04-29 18:28:00,59.2,50.5,29.18,East,80,2.7,3.6,73,0.00,,BKN,0.00,VWS V13.01,2013-04-29 22:28:00,
2013-04-29 18:33:00,59.2,50.5,29.18,ENE,71,4.5,4.5,73,0.00,,BKN,0.00,VWS V13.01,2013-04-29 22:33:00,
2013-04-29 18:38:00,59.2,50.5,29.18,ESE,105,4.0,4.5,73,0.00,,BKN,0.00,VWS V13.01,2013-04-29 22:38:00,
2013-04-29 18:43:00,59.2,50.9,29.18,ENE,70,4.5,4.5,74,0.00,,BKN,0.00,VWS V13.01,2013-04-29 22:43:00,
2013-04-29 18:48:00,59.2,50.9,29.18,ENE,58,7.4,7.4,74,0.00,,BKN,0.00,VWS V13.01,2013-04-29 22:48:00,
2013-04-29 18:53:00,59.2,50.9,29.18,East,99,6.3,9.2,74,0.00,,BKN,0.00,VWS V13.01,2013-04-29 22:53:00,
2013-04-29 18:58:00,58.6,51.1,29.18,ESE,110,5.8,6.7,76,0.00,,BKN,0.00,VWS V13.01,2013-04-29 22:58:00,
2013-04-29 19:03:00,58.3,51.1,29.18,NE,43,3.6,4.5,77,0.00,,BKN,0.00,VWS V13.01,2013-04-29 23:03:00,
2013-04-29 19:08:00,58.1,51.3,29.18,ENE,66,4.5,4.5,78,0.00,,BKN,0.00,VWS V13.01,2013-04-29 23:08:00,
2013-04-29 19:13:00,58.1,51.6,29.18,NE,53,3.6,3.6,79,0.00,,BKN,0.00,VWS V13.01,2013-04-29 23:13:00,
2013-04-29 19:18:00,57.9,51.5,29.18,East,89,2.7,4.0,79,0.00,,BKN,0.00,VWS V13.01,2013-04-29 23:18:00,
2013-04-29 19:23:00,57.9,51.5,29.18,East,80,2.7,4.5,79,0.00,,BKN,0.00,VWS V13.01,2013-04-29 23:23:00,
2013-04-29 19:28:00,57.9,51.5,29.18,ENE,76,0.0,0.0,79,0.00,,BKN,0.00,VWS V13.01,2013-04-29 23:28:00,
2013-04-29 19:33:00,57.7,51.3,29.18,ENE,66,3.1,3.6,79,0.00,,BKN,0.00,VWS V13.01,2013-04-29 23:33:00,
2013-04-29 19:38:00,57.6,51.1,29.18,NE,50,4.5,5.4,79,0.00,,BKN,0.00,VWS V13.01,2013-04-29 23:38:00,
2013-04-29 19:43:00,57.6,51.5,29.18,ENE,72,3.6,6.3,80,0.00,,BKN,0.00,VWS V13.01,2013-04-29 23:43:00,
2013-04-29 19:48:00,57.6,51.5,29.18,NE,49,4.0,6.7,80,0.00,,BKN,0.00,VWS V13.01,2013-04-29 23:48:00,
2013-04-29 19:53:00,57.4,51.6,29.21,East,101,4.0,6.3,81,0.00,,BKN,0.00,VWS V13.01,2013-04-29 23:53:00,
2013-04-29 19:58:00,57.2,51.8,29.21,ENE,72,4.0,4.0,82,0.00,,BKN,0.00,VWS V13.01,2013-04-29 23:58:00,
2013-04-29 20:03:00,57.2,51.8,29.21,East,98,4.0,4.9,82,0.00,,BKN,0.00,VWS V13.01,2013-04-30 00:03:00,
2013-04-29 20:08:00,57.2,52.1,29.21,ENE,67,3.1,4.9,83,0.00,,BKN,0.00,VWS V13.01,2013-04-30 00:08:00,
2013-04-29 20:13:00,57.2,52.1,29.21,ENE,78,4.5,4.9,83,0.00,,BKN,0.00,VWS V13.01,2013-04-30 00:13:00,
2013-04-29 20:18:00,57.2,52.1,29.21,ENE,57,3.6,5.4,83,0.00,,BKN,0.00,VWS V13.01,2013-04-30 00:18:00,
2013-04-29 20:23:00,57.2,52.1,29.21,ENE,70,4.0,5.8,83,0.00,,BKN,0.00,VWS V13.01,2013-04-30 00:23:00,
2013-04-29 20:28:00,57.2,52.1,29.21,East,101,2.7,3.6,83,0.00,,BKN,0.00,VWS V13.01,2013-04-30 00:28:00,
2013-04-29 20:33:00,57.0,51.9,29.21,NE,34,4.9,5.8,83,0.00,,BKN,0.00,VWS V13.01,2013-04-30 00:33:00,
2013-04-29 20:38:00,56.8,51.7,29.21,NE,50,6.3,6.3,83,0.00,,BKN,0.00,VWS V13.01,2013-04-30 00:38:00,
2013-04-29 20:43:00,56.7,51.2,29.21,ENE,61,6.7,8.3,82,0.00,,BKN,0.00,VWS V13.01,2013-04-30 00:43:00,
2013-04-29 20:48:00,56.3,51.2,29.21,NE,49,4.5,4.9,83,0.00,,BKN,0.00,VWS V13.01,2013-04-30 00:48:00,
2013-04-29 20:53:00,55.9,50.9,29.21,ENE,77,3.1,4.0,83,0.00,,BKN,0.00,VWS V13.01,2013-04-30 00:53:00,
2013-04-29 20:58:00,55.8,50.7,29.21,ENE,65,4.0,4.5,83,0.00,,BKN,0.00,VWS V13.01,2013-04-30 00:58:00,
2013-04-29 21:03:00,55.8,50.7,29.21,NNE,27,3.6,4.5,83,0.00,,BKN,0.00,VWS V13.01,2013-04-30 01:03:00,
2013-04-29 21:08:00,55.6,50.5,29.23,ENE,62,2.7,3.6,83,0.00,,BKN,0.00,VWS V13.01,2013-04-30 01:08:00,
2013-04-29 21:13:00,55.6,50.5,29.23,NE,54,3.6,3.6,83,0.00,,BKN,0.00,VWS V13.01,2013-04-30 01:13:00,
2013-04-29 21:18:00,55.4,50.3,29.23,NE,44,4.5,4.5,83,0.00,,BKN,0.00,VWS V13.01,2013-04-30 01:18:00,
2013-04-29 21:23:00,55.4,50.3,29.23,ENE,72,0.0,3.6,83,0.00,,BKN,0.00,VWS V13.01,2013-04-30 01:23:00,
2013-04-29 21:28:00,55.2,50.5,29.23,NE,52,0.0,3.1,84,0.00,,BKN,0.00,VWS V13.01,2013-04-30 01:28:00,
2013-04-29 21:33:00,55.2,50.5,29.23,ENE,65,0.0,0.0,84,0.00,,BKN,0.00,VWS V13.01,2013-04-30 01:33:00,
2013-04-29 21:38:00,55.0,50.3,29.23,NE,54,3.1,3.1,84,0.00,,BKN,0.00,VWS V13.01,2013-04-30 01:38:00,
2013-04-29 21:43:00,55.0,50.3,29.23,ENE,70,3.1,3.6,84,0.00,,BKN,0.00,VWS V13.01,2013-04-30 01:43:00,
2013-04-29 21:48:00,55.0,50.3,29.23,NE,55,3.6,3.6,84,0.00,,BKN,0.00,VWS V13.01,2013-04-30 01:48:00,
2013-04-29 21:53:00,55.0,50.3,29.23,ENE,60,4.5,4.5,84,0.00,,BKN,0.00,VWS V13.01,2013-04-30 01:53:00,
2013-04-29 21:58:00,54.9,50.1,29.23,NE,34,0.0,0.0,84,0.00,,BKN,0.00,VWS V13.01,2013-04-30 01:58:00,
2013-04-29 22:03:00,54.9,50.1,29.23,ENE,57,2.7,3.6,84,0.00,,BKN,0.00,VWS V13.01,2013-04-30 02:03:00,
2013-04-29 22:08:00,54.9,50.1,29.23,NE,53,2.7,4.0,84,0.00,,BKN,0.00,VWS V13.01,2013-04-30 02:08:00,
2013-04-29 22:13:00,54.9,50.1,29.23,NE,55,3.1,4.0,84,0.00,,BKN,0.00,VWS V13.01,2013-04-30 02:13:00,
2013-04-29 22:18:00,54.9,50.1,29.23,NE,54,0.0,0.0,84,0.00,,BKN,0.00,VWS V13.01,2013-04-30 02:18:00,
2013-04-29 22:23:00,54.9,50.1,29.23,ENE,65,2.7,2.7,84,0.00,,BKN,0.00,VWS V13.01,2013-04-30 02:23:00,
2013-04-29 22:28:00,54.9,50.1,29.23,NE,56,2.7,3.1,84,0.00,,BKN,0.00,VWS V13.01,2013-04-30 02:28:00,
2013-04-29 22:33:00,54.9,50.1,29.23,ENE,57,0.0,2.7,84,0.00,,BKN,0.00,VWS V13.01,2013-04-30 02:33:00,
2013-04-29 22:38:00,54.9,50.4,29.23,ENE,57,2.7,3.1,85,0.00,,BKN,0.00,VWS V13.01,2013-04-30 02:38:00,
2013-04-29 22:43:00,54.9,50.4,29.23,NE,42,0.0,0.0,85,0.00,,BKN,0.00,VWS V13.01,2013-04-30 02:43:00,
2013-04-29 22:48:00,54.9,50.4,29.23,NE,55,3.1,4.0,85,0.00,,BKN,0.00,VWS V13.01,2013-04-30 02:48:00,
2013-04-29 22:53:00,54.9,50.4,29.23,NE,54,3.1,3.6,85,0.00,,BKN,0.00,VWS V13.01,2013-04-30 02:53:00,
2013-04-29 22:58:00,54.7,50.3,29.23,NE,48,4.9,4.9,85,0.00,,BKN,0.00,VWS V13.01,2013-04-30 02:58:00,
2013-04-29 23:03:00,54.7,50.3,29.23,NE,54,3.1,5.4,85,0.00,,BKN,0.00,VWS V13.01,2013-04-30 03:03:00,
2013-04-29 23:08:00,54.7,50.3,29.23,NE,38,3.1,4.5,85,0.00,,BKN,0.00,VWS V13.01,2013-04-30 03:08:00,
2013-04-29 23:13:00,54.7,50.3,29.23,ENE,57,4.0,5.8,85,0.00,,BKN,0.00,VWS V13.01,2013-04-30 03:13:00,
2013-04-29 23:18:00,54.5,50.1,29.23,NE,54,3.1,5.8,85,0.00,,BKN,0.00,VWS V13.01,2013-04-30 03:18:00,
2013-04-29 23:23:00,54.5,50.4,29.23,NE,35,5.8,6.3,86,0.00,,BKN,0.00,VWS V13.01,2013-04-30 03:23:00,
2013-04-29 23:28:00,54.5,50.4,29.23,East,90,4.0,4.0,86,0.00,,BKN,0.00,VWS V13.01,2013-04-30 03:28:00,
2013-04-29 23:33:00,54.5,50.4,29.23,NE,43,4.9,4.9,86,0.00,,BKN,0.00,VWS V13.01,2013-04-30 03:33:00,
2013-04-29 23:38:00,54.5,50.4,29.23,NE,43,3.1,4.9,86,0.00,,BKN,0.00,VWS V13.01,2013-04-30 03:38:00,
2013-04-29 23:43:00,54.5,50.4,29.23,ENE,63,3.6,5.4,86,0.00,,BKN,0.00,VWS V13.01,2013-04-30 03:43:00,
2013-04-29 23:48:00,54.5,50.4,29.23,NE,55,3.1,4.5,86,0.00,,BKN,0.00,VWS V13.01,2013-04-30 03:48:00,
2013-04-29 23:53:00,54.5,50.4,29.23,ENE,57,5.4,5.8,86,0.00,,BKN,0.00,VWS V13.01,2013-04-30 03:53:00,
2013-04-29 23:58:00,54.3,50.2,29.23,NE,49,3.6,4.5,86,0.00,,BKN,0.00,VWS V13.01,2013-04-30 03:58:00,